Powrót do katalogu

ARIANE 2 DEB

AktywnyGTO
NORAD 28569·DEBRIS·🇫🇷 France

Wystrzelony Jan 27, 1989 z Guiana Space Centre

Loading…

TLE

Starzejące sięSource: Space-Track

Epoka: Sep 14, 2026, 06:54 UTC

1 28569U 89006AL  26257.28814368 -.00000081  00000-0  70832-3 0  9998
2 28569   8.0075  96.9942 7116942  37.3611 127.6347  2.31273622188816

Śledź ARIANE 2 DEB w czasie rzeczywistym z AllMySat

Download on the App Store